FW2402 Weather Reports


time (UTC)temp
C
wind
direction
speed
KPH
gust
KPH
rain 1hr
cm
rain 24hr
cm
rain mn
cm
humidity
%
barometer
mb
20260905010525 24 0 0.0 3.2 0.00 1.55 1.52 96 1014.1
20260905010044 24 0 0.0 4.8 0.00 1.55 1.52 96 1014.1
20260905005523 24 49 1.6 4.8 0.00 1.75 1.52 96 1013.9
20260905005020 24 0 0.0 4.8 0.00 1.75 1.52 96 1014.0
20260905004544 24 105 1.6 4.8 0.00 1.75 1.52 96 1014.0
20260905004018 24 0 0.0 4.8 0.00 1.75 1.52 96 1014.0
20260905003528 24 105 1.6 3.2 0.00 1.75 1.52 96 1014.0
20260905003041 24 0 0.0 3.2 0.00 1.75 1.52 96 1013.9
20260905002522 24 181 0.0 1.6 0.00 1.75 1.52 96 1013.9
20260905002024 24 0 0.0 0.0 0.00 1.75 1.52 96 1013.8
20260905001544 24 0 0.0 0.0 0.00 1.75 1.52 96 1013.9
20260905001022 24 0 0.0 3.2 0.00 1.75 1.52 96 1013.9
20260905000526 24 0 0.0 3.2 0.00 1.75 1.52 96 1013.9
20260905000042 24 0 0.0 3.2 0.00 1.75 1.52 96 1014.1
20260904235522 24 0 0.0 8.0 0.00 2.74 1.52 96 1014.1
20260904235020 24 0 1.6 8.0 0.00 2.74 1.52 96 1014.2
20260904234541 24 158 1.6 6.4 0.00 2.74 1.52 96 1014.3
20260904234026 24 219 1.6 6.4 0.00 2.74 1.52 96 1014.3
20260904233524 25 0 0.0 3.2 0.00 2.74 1.52 96 1014.3
20260904233040 25 0 0.0 3.2 0.00 2.74 1.52 96 1014.2
20260904232524 25 0 0.0 1.6 0.00 2.74 1.52 96 1014.3
20260904232022 25 0 0.0 3.2 0.00 2.74 1.52 96 1014.3
20260904231601 25 0 0.0 3.2 0.00 2.74 1.52 96 1014.3
20260904231023 25 0 0.0 0.0 0.00 2.74 1.52 96 1014.2
20260904230523 25 0 0.0 0.0 0.00 2.74 1.52 96 1014.2
20260904230043 24 0 0.0 0.0 0.00 2.74 1.52 96 1014.3
20260904225519 24 0 0.0 0.0 0.00 2.74 1.52 96 1014.4
20260904225025 24 0 0.0 0.0 0.00 2.74 1.52 96 1014.5
20260904224541 24 0 0.0 6.4 0.03 2.74 1.52 96 1014.5
20260904224024 24 0 0.0 6.4 0.03 2.74 1.52 95 1014.3
20260904223524 24 0 0.0 3.2 0.03 2.74 1.52 95 1014.4
20260904223048 24 0 0.0 3.2 0.05 2.74 1.52 95 1014.0
20260904222526 23 70 1.6 3.2 0.10 2.74 1.52 95 1014.2
20260904222023 23 0 0.0 1.6 0.18 2.74 1.52 95 1014.0
20260904221547 23 0 0.0 3.2 0.20 2.74 1.52 95 1013.7
20260904221021 23 0 0.0 6.4 0.20 2.74 1.52 95 1013.1
20260904220523 23 266 0.0 6.4 0.20 2.74 1.52 95 1012.8
20260904220051 23 0 3.2 6.4 0.23 2.74 1.52 95 1012.9
20260904215518 23 284 1.6 11.3 0.23 2.74 1.52 95 1012.7
20260904215027 23 276 3.2 14.5 0.25 2.74 1.52 95 1012.9
20260904214548 24 266 8.0 14.5 0.46 2.72 1.47 95 1013.3
20260904214021 24 0 0.0 3.2 0.51 2.72 1.47 95 1013.5
20260904213527 24 0 0.0 4.8 0.48 2.67 1.47 95 1013.5
20260904213048 24 288 1.6 4.8 0.53 2.67 1.47 95 1013.7
20260904212524 24 0 0.0 3.2 0.51 2.64 1.42 95 1013.6
20260904212021 24 267 0.0 6.4 0.99 2.54 1.32 95 1013.8
20260904211544 24 0 0.0 17.7 1.07 2.54 1.32 95 1013.9
20260904211020 24 250 8.0 17.7 1.14 2.54 1.32 95 1014.0
20260904210520 25 259 4.8 12.9 1.14 2.54 1.32 95 1013.9
20260904210054 24 111 3.2 16.1 1.14 2.51 1.30 94 1013.8
20260904205524 24 126 4.8 16.1 1.14 2.51 1.30 94 1013.8
20260904205025 24 122 9.7 16.1 1.09 2.46 1.24 94 1013.9
20260904204548 25 96 4.8 9.7 0.91 2.24 1.02 94 1013.8
20260904204026 25 85 3.2 9.7 0.89 2.21 0.99 94 1013.8
20260904203525 25 74 1.6 12.9 0.91 2.21 0.99 93 1014.0
20260904203051 25 5 1.6 12.9 0.86 2.16 0.94 93 1013.8
20260904202522 25 36 4.8 14.5 0.79 2.08 0.86 92 1013.4
20260904202027 25 163 1.6 19.3 0.23 1.52 0.30 92 1013.5
20260904201544 25 153 8.0 19.3 0.15 1.45 0.23 91 1013.5
20260904201024 25 159 8.0 19.3 0.10 1.40 0.18 92 1013.1
20260904200524 25 159 3.2 19.3 0.10 1.40 0.18 90 1012.9
20260904200106 25 217 6.4 17.7 0.08 1.37 0.15 88 1013.4
20260904195523 26 189 6.4 17.7 0.08 1.37 0.15 88 1013.4
20260904195027 26 142 6.4 22.5 0.08 1.37 0.15 90 1013.3
20260904194545 27 246 6.4 22.5 0.03 1.32 0.10 88 1012.9
20260904194023 27 251 14.5 22.5 0.00 1.30 0.08 84 1013.1
20260904193526 28 267 8.0 16.1 0.00 1.30 0.08 83 1013.4
20260904193041 28 259 8.0 12.9 0.00 1.30 0.08 84 1013.5
20260904192523 29 265 6.4 16.1 0.00 1.30 0.08 84 1013.3
20260904192023 29 265 8.0 24.1 0.00 1.30 0.08 82 1013.2
20260904191547 29 280 14.5 24.1 0.00 1.30 0.08 81 1013.4
20260904191021 30 288 16.1 22.5 0.00 1.30 0.08 81 1013.4
20260904190524 30 284 14.5 22.5 0.00 1.30 0.08 78 1013.3
20260904190050 31 267 3.2 12.9 0.08 1.30 0.08 76 1013.4
20260904185525 31 253 4.8 12.9 0.08 1.30 0.08 73 1013.5
20260904185021 32 117 0.0 12.9 0.08 1.30 0.08 77 1013.5
20260904184542 31 265 3.2 9.7 0.08 1.30 0.08 78 1013.5
20260904184020 31 70 1.6 6.4 0.08 1.30 0.08 81 1013.6
20260904183519 31 0 3.2 6.4 0.08 1.30 0.08 82 1013.7
20260904183042 31 89 0.0 3.2 0.08 1.30 0.08 86 1014.0
20260904182535 30 0 0.0 0.0 0.08 1.30 0.08 89 1014.0
20260904182024 29 0 0.0 1.6 0.08 1.30 0.08 93 1014.1
20260904181549 28 0 0.0 6.4 0.08 1.30 0.08 90 1014.2
20260904181021 29 0 1.6 8.0 0.08 1.30 0.08 88 1014.3
20260904180524 29 78 1.6 8.0 0.08 1.30 0.08 88 1014.5
20260904180048 30 147 3.2 11.3 0.00 1.22 0.00 81 1014.4
20260904175520 30 110 3.2 11.3 0.00 1.22 0.00 77 1014.5
20260904175025 31 128 1.6 8.0 0.00 1.22 0.00 76 1014.5
20260904174542 31 0 1.6 9.7 0.00 1.22 0.00 78 1014.6
20260904174022 31 0 3.2 9.7 0.00 1.22 0.00 78 1014.7
20260904173525 31 162 3.2 11.3 0.00 1.22 0.00 75 1014.6
20260904173100 31 165 3.2 12.9 0.00 1.22 0.00 77 1014.8
20260904172524 30 165 4.8 12.9 0.00 1.22 0.00 79 1014.8
20260904172023 30 95 1.6 11.3 0.00 1.22 0.00 79 1014.9
20260904171546 31 0 3.2 11.3 0.00 1.22 0.00 81 1014.9
20260904171022 30 128 3.2 9.7 0.00 1.22 0.00 78 1014.8
20260904170522 31 192 3.2 9.7 0.00 1.22 0.00 74 1015.0
20260904170041 32 0 1.6 11.3 0.00 1.22 0.00 75 1015.0
20260904165524 31 126 3.2 11.3 0.00 1.22 0.00 78 1015.0
20260904165025 31 157 3.2 9.7 0.00 1.22 0.00 80 1015.1
20260904164540 31 160 1.6 8.0 0.00 1.22 0.00 76 1015.2
20260904164024 32 188 1.6 9.7 0.00 1.22 0.00 75 1015.4
20260904163524 32 148 1.6 9.7 0.00 1.22 0.00 77 1015.4
20260904163046 32 229 0.0 6.4 0.00 1.22 0.00 80 1015.4
20260904162523 31 112 1.6 8.0 0.00 1.22 0.00 78 1015.5
20260904162023 31 169 3.2 9.7 0.00 1.22 0.00 76 1015.5
20260904161540 31 135 1.6 9.7 0.00 1.22 0.00 81 1015.6
20260904161028 30 261 1.6 6.4 0.00 1.22 0.00 77 1015.6
20260904160525 30 241 0.0 6.4 0.00 1.22 0.00 80 1015.6
20260904160047 29 0 0.0 9.7 0.00 1.22 0.00 81 1015.7
20260904155525 30 223 3.2 9.7 0.00 1.22 0.00 79 1015.7
20260904155024 29 0 0.0 8.0 0.00 1.22 0.00 83 1015.7
20260904154550 29 0 1.6 12.9 0.00 1.22 0.00 81 1015.9
20260904154024 30 126 3.2 12.9 0.00 1.22 0.00 81 1015.8
20260904153525 30 161 4.8 14.5 0.00 1.22 0.00 82 1015.7
20260904153047 30 0 3.2 14.5 0.00 1.22 0.00 81 1015.6
20260904152523 30 126 4.8 11.3 0.00 1.22 0.00 83 1015.5
20260904152022 30 131 1.6 9.7 0.00 1.22 0.00 83 1015.5
20260904151543 30 0 3.2 9.7 0.00 1.22 0.00 85 1015.5
20260904151018 30 288 1.6 11.3 0.00 1.22 0.00 84 1015.4
20260904150519 30 177 3.2 11.3 0.00 1.22 0.00 85 1015.4
20260904150050 29 182 1.6 12.9 0.00 1.22 0.00 83 1015.2
20260904145523 29 171 4.8 12.9 0.00 1.22 0.00 86 1015.2
20260904145023 29 164 1.6 9.7 0.00 1.22 0.00 87 1015.2
20260904144547 29 167 1.6 14.5 0.00 1.22 0.00 88 1015.2
20260904144024 28 153 1.6 14.5 0.00 1.22 0.00 88 1015.3
20260904143528 28 0 1.6 11.3 0.00 1.22 0.00 87 1015.3
20260904143044 28 163 3.2 11.3 0.00 1.22 0.00 88 1015.2
20260904142524 28 0 1.6 6.4 0.00 1.22 0.00 89 1015.3
20260904142024 28 0 0.0 11.3 0.00 1.22 0.00 88 1015.2
20260904141551 28 0 3.2 11.3 0.00 1.22 0.00 90 1015.2
20260904141032 27 171 3.2 8.0 0.00 1.22 0.00 90 1015.3
20260904140527 27 109 1.6 8.0 0.00 1.22 0.00 91 1015.2
20260904135524 27 0 1.6 9.7 0.00 1.22 0.00 93 1015.3
20260904135025 27 85 3.2 9.7 0.00 1.22 0.00 93 1015.2
20260904134609 27 144 3.2 9.7 0.00 1.22 0.00 93 1015.3
20260904134024 27 71 3.2 9.7 0.00 1.22 0.00 93 1015.2
20260904133520 26 167 1.6 9.7 0.00 1.22 0.00 94 1015.2
20260904133046 26 0 3.2 9.7 0.00 1.22 0.00 95 1015.2
20260904132523 26 0 0.0 8.0 0.00 1.22 0.00 95 1015.1
20260904132020 26 143 3.2 8.0 0.00 1.22 0.00 95 1015.0
20260904131541 26 125 1.6 6.4 0.00 1.22 0.00 96 1015.0
20260904131024 26 118 3.2 8.0 0.00 1.22 0.00 96 1014.9
20260904130524 25 120 3.2 8.0 0.00 1.22 0.00 96 1015.0
20260904130048 25 180 1.6 6.4 0.00 1.22 0.00 97 1015.0
20260904125529 25 155 3.2 9.7 0.00 1.22 0.00 97 1014.9
20260904125024 25 124 4.8 9.7 0.00 1.22 0.00 97 1014.9
20260904124543 25 147 3.2 8.0 0.00 1.22 0.00 97 1014.9
20260904124019 25 148 1.6 6.4 0.00 1.22 0.00 97 1014.9
20260904123525 25 130 1.6 4.8 0.00 1.22 0.00 97 1014.8
20260904123041 25 83 1.6 6.4 0.00 1.22 0.00 97 1015.0
20260904122526 24 86 0.0 6.4 0.00 1.22 0.00 97 1014.9
20260904122023 24 0 1.6 6.4 0.00 1.22 0.00 97 1014.8
20260904121552 24 127 3.2 6.4 0.00 1.22 0.00 97 1014.5
20260904121025 24 120 1.6 4.8 0.00 1.22 0.00 97 1014.5
20260904120526 23 105 1.6 4.8 0.00 1.22 0.00 97 1014.5
20260904120050 23 108 1.6 3.2 0.00 1.22 0.00 97 1014.4
20260904115525 23 0 0.0 0.0 0.00 1.22 0.00 97 1014.4
20260904115024 23 0 0.0 0.0 0.00 1.22 0.00 97 1014.3
20260904114544 23 0 0.0 0.0 0.00 1.22 0.00 97 1014.4
20260904114028 23 0 0.0 0.0 0.00 1.22 0.00 97 1014.3
20260904113523 23 0 0.0 0.0 0.00 1.22 0.00 97 1014.3
20260904113042 23 0 0.0 0.0 0.00 1.22 0.00 97 1014.1
20260904112520 23 0 0.0 0.0 0.00 1.22 0.00 97 1014.1
20260904112024 23 0 0.0 0.0 0.00 1.22 0.00 97 1014.1
20260904111543 23 0 0.0 0.0 0.00 1.22 0.00 97 1014.2
20260904111024 23 0 0.0 0.0 0.00 1.22 0.00 97 1014.2
20260904110525 23 0 0.0 0.0 0.00 1.22 0.00 97 1014.2
20260904110047 23 0 0.0 0.0 0.00 1.22 0.00 97 1014.1
20260904105525 23 0 0.0 0.0 0.00 1.22 0.00 97 1014.1
20260904105024 23 0 0.0 0.0 0.00 1.22 0.00 97 1014.0
20260904104544 22 0 0.0 0.0 0.00 1.22 0.00 97 1013.8
20260904104019 22 0 0.0 0.0 0.00 1.22 0.00 97 1013.8
20260904103526 22 0 0.0 0.0 0.00 1.22 0.00 97 1013.9
20260904103041 22 0 0.0 0.0 0.00 1.22 0.00 97 1013.8
20260904102525 22 0 0.0 0.0 0.00 1.22 0.00 97 1013.8
20260904102023 22 0 0.0 0.0 0.00 1.22 0.00 97 1013.8
20260904101539 22 0 0.0 0.0 0.00 1.22 0.00 97 1013.6
20260904101024 22 0 0.0 0.0 0.00 1.22 0.00 97 1013.6
20260904100524 23 0 0.0 0.0 0.00 1.22 0.00 97 1013.6
20260904100049 22 0 0.0 0.0 0.00 1.22 0.00 97 1013.6
20260904095524 23 0 0.0 0.0 0.00 1.22 0.00 96 1013.6
20260904095021 23 0 0.0 0.0 0.00 1.22 0.00 97 1013.6
20260904094552 23 0 0.0 0.0 0.00 1.22 0.00 96 1013.5
20260904094019 23 0 0.0 0.0 0.00 1.22 0.00 97 1013.5
20260904093519 23 0 0.0 0.0 0.00 1.22 0.00 96 1013.4
20260904093039 23 0 0.0 0.0 0.00 1.22 0.00 96 1013.5
20260904092525 23 0 0.0 0.0 0.00 1.22 0.00 96 1013.5
20260904092024 23 0 0.0 0.0 0.00 1.22 0.00 96 1013.4
20260904091547 23 0 0.0 0.0 0.00 1.22 0.00 96 1013.4
20260904091021 23 0 0.0 0.0 0.00 1.22 0.00 96 1013.3
20260904090521 23 0 0.0 0.0 0.00 1.22 0.00 96 1013.3
20260904090053 23 0 0.0 0.0 0.00 1.22 0.00 96 1013.3
20260904085523 23 0 0.0 0.0 0.00 1.22 0.00 96 1013.5
20260904085024 23 0 0.0 0.0 0.00 1.22 0.00 96 1013.4
20260904084546 23 0 0.0 0.0 0.00 1.22 0.00 96 1013.3
20260904084025 23 0 0.0 0.0 0.00 1.22 0.00 96 1013.3
20260904083526 23 0 0.0 0.0 0.00 1.22 0.00 96 1013.3
20260904083123 23 0 0.0 0.0 0.00 1.22 0.00 96 1013.2
20260904082524 23 0 0.0 0.0 0.00 1.22 0.00 96 1013.3
20260904082023 23 0 0.0 0.0 0.00 1.22 0.00 96 1013.3
20260904081543 23 0 0.0 0.0 0.00 1.22 0.00 96 1013.3
20260904081023 23 0 0.0 0.0 0.00 1.22 0.00 96 1013.3
20260904080521 23 0 0.0 0.0 0.00 1.22 0.00 96 1013.3
20260904080045 23 0 0.0 0.0 0.00 1.22 0.00 96 1013.3
20260904075522 23 0 0.0 0.0 0.00 1.22 0.00 96 1013.3
20260904075027 23 0 0.0 0.0 0.00 1.22 0.00 96 1013.2
20260904074541 23 0 0.0 0.0 0.00 1.22 0.00 96 1013.3
20260904074025 23 0 0.0 0.0 0.00 1.22 0.00 96 1013.3
20260904073524 23 0 0.0 0.0 0.00 1.22 0.00 96 1013.2
20260904073040 23 0 0.0 0.0 0.00 1.22 0.00 96 1013.2
20260904072523 23 0 0.0 0.0 0.00 1.22 0.00 96 1013.2
20260904072030 23 0 0.0 0.0 0.00 1.22 0.00 96 1013.3
20260904071601 23 0 0.0 0.0 0.00 1.22 0.00 96 1013.1
20260904071020 23 0 0.0 0.0 0.00 1.22 0.00 96 1013.1
20260904070524 23 0 0.0 0.0 0.00 1.22 0.00 96 1013.2
20260904070108 23 0 0.0 0.0 0.00 1.22 0.00 96 1013.1
20260904065521 23 0 0.0 0.0 0.00 1.22 0.00 96 1013.3
20260904065028 23 0 0.0 0.0 0.00 1.22 0.00 96 1013.3
20260904064550 23 0 0.0 0.0 0.00 1.22 0.00 96 1013.1
20260904064021 23 0 0.0 0.0 0.00 1.22 0.00 96 1013.1
20260904063524 23 0 0.0 0.0 0.00 1.22 0.00 96 1013.1
20260904063100 23 0 0.0 0.0 0.00 1.22 0.00 96 1013.2
20260904062524 23 0 0.0 0.0 0.00 1.22 0.00 96 1013.3
20260904062019 23 0 0.0 0.0 0.00 1.22 0.00 96 1013.4
20260904061542 23 0 0.0 0.0 0.00 1.22 0.00 96 1013.6
20260904061019 23 0 0.0 0.0 0.00 1.22 0.00 96 1013.6
20260904060522 23 0 0.0 0.0 0.00 1.22 0.00 96 1013.7
20260904060042 23 0 0.0 0.0 0.00 1.22 0.00 96 1013.6
20260904055525 23 0 0.0 0.0 0.00 1.22 0.00 96 1013.7
20260904055025 23 0 0.0 0.0 0.00 1.22 0.00 96 1013.7
20260904054551 23 0 0.0 3.2 0.00 1.22 0.00 96 1013.9
20260904054023 23 0 0.0 3.2 0.00 1.22 0.00 96 1013.9
20260904053522 23 0 0.0 3.2 0.00 1.22 0.00 96 1013.8
20260904053055 23 0 0.0 0.0 0.00 1.22 0.00 96 1013.9
20260904052523 23 0 0.0 0.0 0.00 1.22 0.00 96 1013.9
20260904052022 23 0 0.0 0.0 0.00 1.22 0.00 96 1014.0
20260904051544 23 0 0.0 0.0 0.00 1.22 0.00 96 1014.0
20260904051023 23 0 0.0 0.0 0.00 1.22 0.00 96 1013.9
20260904050521 23 0 0.0 0.0 0.00 1.22 0.00 96 1014.1
20260904050049 23 0 0.0 0.0 0.00 1.22 0.00 96 1014.1
20260904045525 23 0 0.0 0.0 0.00 1.24 0.00 96 1014.1
20260904045025 23 0 0.0 0.0 0.00 1.24 0.00 96 1014.1
20260904044546 23 0 0.0 0.0 0.00 1.24 0.00 96 1014.1
20260904044023 23 0 0.0 0.0 0.00 1.24 0.00 96 1014.1
20260904043519 23 0 0.0 0.0 0.00 1.24 0.00 96 1014.1
20260904043056 23 0 0.0 0.0 0.00 1.24 0.00 96 1014.1
20260904042525 23 0 0.0 0.0 0.00 1.24 0.00 96 1014.1
20260904042024 23 0 0.0 0.0 0.00 1.24 0.00 96 1014.1
20260904041546 23 0 0.0 0.0 0.00 1.24 0.00 96 1014.2
20260904041021 23 0 0.0 0.0 0.00 1.24 0.00 96 1014.1
20260904040522 23 0 0.0 3.2 0.00 1.24 0.00 96 1014.1
20260904035525 23 0 0.0 4.8 0.00 1.24 1.24 96 1014.1
20260904035022 23 101 1.6 4.8 0.00 1.24 1.24 96 1013.9
20260904034541 23 99 1.6 4.8 0.00 1.24 1.24 96 1014.0
20260904034019 23 109 1.6 4.8 0.00 1.24 1.24 96 1014.1
20260904033520 24 102 0.0 4.8 0.00 1.24 1.24 96 1014.1
20260904033044 24 0 0.0 0.0 0.00 1.24 1.24 96 1014.1
20260904032523 24 0 0.0 0.0 0.00 1.24 1.24 96 1014.1
20260904032021 24 0 0.0 1.6 0.00 1.24 1.24 96 1014.1
20260904031552 24 0 0.0 3.2 0.00 1.24 1.24 96 1014.1
20260904031024 24 0 0.0 3.2 0.00 1.24 1.24 96 1014.2
20260904030524 24 0 0.0 3.2 0.00 1.24 1.24 96 1014.2
20260904030043 24 0 0.0 4.8 0.00 1.24 1.24 96 1014.1
20260904025524 24 118 1.6 4.8 0.00 1.24 1.24 96 1014.1
20260904025022 24 136 1.6 4.8 0.00 1.24 1.24 96 1014.1
20260904024554 24 101 1.6 4.8 0.00 1.24 1.24 96 1014.1
20260904024018 24 107 1.6 8.0 0.00 1.24 1.24 96 1014.1
20260904023524 24 128 3.2 8.0 0.03 1.24 1.24 96 1014.0
20260904023049 24 121 3.2 6.4 0.03 1.24 1.24 96 1014.0
20260904022525 24 96 3.2 8.0 0.03 1.24 1.24 96 1013.9
20260904022024 24 0 1.6 8.0 0.03 1.24 1.24 96 1013.9
20260904021547 24 119 3.2 8.0 0.03 1.24 1.24 96 1013.8
20260904021024 24 115 1.6 4.8 0.03 1.24 1.24 96 1013.9
20260904020524 24 74 1.6 4.8 0.03 1.24 1.24 96 1013.8
20260904020046 24 82 1.6 4.8 0.03 1.24 1.24 96 1013.7
20260904015524 24 108 1.6 4.8 0.05 1.32 1.24 96 1013.8
20260904015022 24 0 1.6 6.4 0.05 1.32 1.24 96 1013.7
20260904014557 24 109 1.6 6.4 0.08 1.32 1.24 96 1013.7
20260904014025 24 108 1.6 4.8 0.08 1.32 1.24 96 1013.7
20260904013525 24 120 0.0 4.8 0.08 1.30 1.22 96 1013.7
20260904013048 24 76 1.6 4.8 0.08 1.30 1.22 96 1013.7
20260904012524 24 69 1.6 4.8 0.08 1.30 1.22 96 1013.7
20260904012024 24 91 1.6 6.4 0.08 1.30 1.22 96 1013.6
20260904011546 24 65 3.2 6.4 0.08 1.30 1.22 95 1013.4
20260904011024 24 93 3.2 4.8 0.10 1.30 1.22 95 1013.4